📊 Raw Sensor Data

Showing records 49776 to 49800 of 85,124 total

ID Distance (ft) Battery V Battery A Int Temp (°F) Int Humid (%) Ext Temp (°F) Solar V RSSI SNR Time Stamp
35361 15.1 4.04 -5 51 46 53 0.30 -78 7 03/18/2025 07:30 PM
35360 15.1 3.98 -8 55 45 54 3.30 -78 8 03/18/2025 07:15 PM
35359 15.0 4.00 0 58 45 56 4.50 -78 8 03/18/2025 07:00 PM
35358 15.0 4.02 10 61 44 58 4.50 -78 7 03/18/2025 06:45 PM
35357 15.1 4.10 5 63 44 57 4.50 -78 8 03/18/2025 06:30 PM
35356 15.1 4.07 35 67 43 59 4.50 -79 7 03/18/2025 06:15 PM
35355 15.5 4.03 0 69 42 60 5.10 -78 8 03/18/2025 06:00 PM
35354 15.3 4.14 0 71 40 62 5.10 -78 8 03/18/2025 05:45 PM
35353 15.3 4.05 5 71 40 62 5.10 -78 8 03/18/2025 05:30 PM
35352 15.3 4.13 0 71 40 62 5.10 -75 8 03/18/2025 05:15 PM
35351 15.2 4.03 0 70 40 60 5.10 -77 8 03/18/2025 05:00 PM
35350 15.2 4.03 0 71 39 61 5.10 -76 8 03/18/2025 04:45 PM
35349 15.2 4.03 5 72 38 62 5.10 -77 8 03/18/2025 04:30 PM
35348 15.2 4.03 0 71 38 61 5.10 -75 8 03/18/2025 04:15 PM
35347 15.2 4.03 0 71 38 61 5.10 -77 7 03/18/2025 04:00 PM
35346 15.2 4.03 0 71 37 60 5.10 -77 8 03/18/2025 03:45 PM
35345 15.3 4.03 5 71 36 60 5.10 -75 9 03/18/2025 03:30 PM
35344 15.3 4.04 5 70 36 60 5.10 -75 8 03/18/2025 03:15 PM
35343 15.2 4.03 0 70 36 58 5.10 -76 8 03/18/2025 03:00 PM
35342 15.3 4.03 0 69 36 58 5.10 -74 8 03/18/2025 02:45 PM
35341 -- 4.03 5 69 36 58 5.10 -76 8 03/18/2025 02:30 PM
35340 15.3 4.03 0 67 36 57 5.10 -75 8 03/18/2025 02:15 PM
35339 15.2 4.03 0 66 36 57 5.10 -75 8 03/18/2025 02:00 PM
35338 15.2 4.03 0 65 36 57 5.10 -75 8 03/18/2025 01:45 PM
35337 15.2 4.03 5 63 36 56 5.10 -76 8 03/18/2025 01:30 PM